Year,Month,Day,Hour,Minute,Value (Times are PST for temperature in C)
2016,07,14,00,00,13.90
2016,07,14,00,01,13.90
2016,07,14,00,02,13.90
2016,07,14,00,03,13.90
2016,07,14,00,04,13.90
2016,07,14,00,05,13.80
2016,07,14,00,06,13.80
2016,07,14,00,07,13.80
2016,07,14,00,08,13.80
2016,07,14,00,09,13.80
2016,07,14,00,10,13.80
2016,07,14,00,11,13.80
2016,07,14,00,12,13.80
2016,07,14,00,13,13.80
2016,07,14,00,14,13.80
2016,07,14,00,15,13.80
2016,07,14,00,16,13.80
2016,07,14,00,17,13.80
2016,07,14,00,18,13.70
2016,07,14,00,19,13.70
2016,07,14,00,20,13.70
2016,07,14,00,21,13.70
2016,07,14,00,22,13.70
2016,07,14,00,23,13.70
2016,07,14,00,24,13.60
2016,07,14,00,25,13.60
2016,07,14,00,26,13.60
2016,07,14,00,27,13.60
2016,07,14,00,28,13.60
2016,07,14,00,29,13.60
2016,07,14,00,30,13.60
2016,07,14,00,31,13.60
2016,07,14,00,32,13.60
2016,07,14,00,33,13.60
2016,07,14,00,34,13.60
2016,07,14,00,35,13.60
2016,07,14,00,36,13.60
2016,07,14,00,37,13.60
2016,07,14,00,38,13.60
2016,07,14,00,39,13.60
2016,07,14,00,40,13.60
2016,07,14,00,41,13.60
2016,07,14,00,42,13.60
2016,07,14,00,43,13.60
2016,07,14,00,44,13.60
2016,07,14,00,45,13.60
2016,07,14,00,46,13.60
2016,07,14,00,47,13.50
2016,07,14,00,48,13.50
2016,07,14,00,49,13.50
2016,07,14,00,50,13.50
2016,07,14,00,51,13.50
2016,07,14,00,52,13.50
2016,07,14,00,53,13.50
2016,07,14,00,54,13.50
2016,07,14,00,55,13.50
2016,07,14,00,56,13.60
2016,07,14,00,57,13.60
2016,07,14,00,58,13.60
2016,07,14,00,59,13.60
2016,07,14,01,00,13.60
2016,07,14,01,01,13.60
2016,07,14,01,02,13.60
2016,07,14,01,03,13.70
2016,07,14,01,04,13.70
2016,07,14,01,05,13.80
2016,07,14,01,06,13.80
2016,07,14,01,07,13.90
2016,07,14,01,08,14.00
2016,07,14,01,09,14.10
2016,07,14,01,10,14.10
2016,07,14,01,11,14.20
2016,07,14,01,12,14.20
2016,07,14,01,13,14.30
2016,07,14,01,14,14.30
2016,07,14,01,15,14.30
2016,07,14,01,16,14.30
2016,07,14,01,17,14.40
2016,07,14,01,18,14.40
2016,07,14,01,19,14.40
2016,07,14,01,20,14.40
2016,07,14,01,21,14.40
2016,07,14,01,22,14.40
2016,07,14,01,23,14.40
2016,07,14,01,24,14.30
2016,07,14,01,25,14.30
2016,07,14,01,26,14.30
2016,07,14,01,27,14.30
2016,07,14,01,28,14.30
2016,07,14,01,29,14.30
2016,07,14,01,30,14.30
2016,07,14,01,31,14.30
2016,07,14,01,32,14.30
2016,07,14,01,33,14.20
2016,07,14,01,34,14.20
2016,07,14,01,35,14.20
2016,07,14,01,36,14.20
2016,07,14,01,37,14.20
2016,07,14,01,38,14.20
2016,07,14,01,39,14.20
2016,07,14,01,40,14.20
2016,07,14,01,41,14.20
2016,07,14,01,42,14.20
2016,07,14,01,43,14.20
2016,07,14,01,44,14.20
2016,07,14,01,45,14.20
2016,07,14,01,46,14.20
2016,07,14,01,47,14.20
2016,07,14,01,48,14.20
2016,07,14,01,49,14.20
2016,07,14,01,50,14.10
2016,07,14,01,51,14.10
2016,07,14,01,52,14.10
2016,07,14,01,53,14.00
2016,07,14,01,54,14.00
2016,07,14,01,55,13.90
2016,07,14,01,56,13.90
2016,07,14,01,57,13.90
2016,07,14,01,58,13.80
2016,07,14,01,59,13.80
2016,07,14,02,00,13.80
2016,07,14,02,01,13.70
2016,07,14,02,02,13.70
2016,07,14,02,03,13.70
2016,07,14,02,04,13.60
2016,07,14,02,05,13.60
2016,07,14,02,06,13.60
2016,07,14,02,07,13.50
2016,07,14,02,08,13.50
2016,07,14,02,09,13.40
2016,07,14,02,10,13.40
2016,07,14,02,11,13.40
2016,07,14,02,12,13.40
2016,07,14,02,13,13.40
2016,07,14,02,14,13.30
2016,07,14,02,15,13.30
2016,07,14,02,16,13.30
2016,07,14,02,17,13.30
2016,07,14,02,18,13.30
2016,07,14,02,19,13.30
2016,07,14,02,20,13.30
2016,07,14,02,21,13.20
2016,07,14,02,22,13.20
2016,07,14,02,23,13.20
2016,07,14,02,24,13.20
2016,07,14,02,25,13.20
2016,07,14,02,26,13.20
2016,07,14,02,27,13.10
2016,07,14,02,28,13.10
2016,07,14,02,29,13.10
2016,07,14,02,30,13.10
2016,07,14,02,31,13.10
2016,07,14,02,32,13.00
2016,07,14,02,33,13.00
2016,07,14,02,34,13.00
2016,07,14,02,35,13.00
2016,07,14,02,36,12.90
2016,07,14,02,37,12.90
2016,07,14,02,38,12.90
2016,07,14,02,39,12.80
2016,07,14,02,40,12.80
2016,07,14,02,41,12.80
2016,07,14,02,42,12.80
2016,07,14,02,43,12.80
2016,07,14,02,44,12.90
2016,07,14,02,45,12.90
2016,07,14,02,46,12.90
2016,07,14,02,47,12.80
2016,07,14,02,48,12.80
2016,07,14,02,49,12.80
2016,07,14,02,50,12.80
2016,07,14,02,51,12.80
2016,07,14,02,52,12.80
2016,07,14,02,53,12.80
2016,07,14,02,54,12.80
2016,07,14,02,55,12.70
2016,07,14,02,56,12.70
2016,07,14,02,57,12.70
2016,07,14,02,58,12.70
2016,07,14,02,59,12.70
2016,07,14,03,00,12.70
2016,07,14,03,01,12.70
2016,07,14,03,02,12.70
2016,07,14,03,03,12.70
2016,07,14,03,04,12.70
2016,07,14,03,05,12.70
2016,07,14,03,06,12.70
2016,07,14,03,07,12.60
2016,07,14,03,08,12.60
2016,07,14,03,09,12.60
2016,07,14,03,10,12.60
2016,07,14,03,11,12.60
2016,07,14,03,12,12.60
2016,07,14,03,13,12.60
2016,07,14,03,14,12.50
2016,07,14,03,15,12.50
2016,07,14,03,16,12.60
2016,07,14,03,17,12.60
2016,07,14,03,18,12.60
2016,07,14,03,19,12.60
2016,07,14,03,20,12.70
2016,07,14,03,21,12.70
2016,07,14,03,22,12.70
2016,07,14,03,23,12.70
2016,07,14,03,24,12.60
2016,07,14,03,25,12.60
2016,07,14,03,26,12.60
2016,07,14,03,27,12.60
2016,07,14,03,28,12.60
2016,07,14,03,29,12.70
2016,07,14,03,30,12.70
2016,07,14,03,31,12.60
2016,07,14,03,32,12.70
2016,07,14,03,33,12.70
2016,07,14,03,34,12.70
2016,07,14,03,35,12.60
2016,07,14,03,36,12.60
2016,07,14,03,37,12.60
2016,07,14,03,38,12.60
2016,07,14,03,39,12.60
2016,07,14,03,40,12.60
2016,07,14,03,41,12.60
2016,07,14,03,42,12.60
2016,07,14,03,43,12.60
2016,07,14,03,44,12.60
2016,07,14,03,45,12.60
2016,07,14,03,46,12.50
2016,07,14,03,47,12.50
2016,07,14,03,48,12.50
2016,07,14,03,49,12.40
2016,07,14,03,50,12.40
2016,07,14,03,51,12.40
2016,07,14,03,52,12.40
2016,07,14,03,53,12.30
2016,07,14,03,54,12.30
2016,07,14,03,55,12.30
2016,07,14,03,56,12.30
2016,07,14,03,57,12.30
2016,07,14,03,58,12.20
2016,07,14,03,59,12.20
2016,07,14,04,00,12.20
2016,07,14,04,01,12.20
2016,07,14,04,02,12.10
2016,07,14,04,03,12.10
2016,07,14,04,04,12.10
2016,07,14,04,05,12.10
2016,07,14,04,06,12.10
2016,07,14,04,07,12.10
2016,07,14,04,08,12.10
2016,07,14,04,09,12.00
2016,07,14,04,10,12.00
2016,07,14,04,11,12.00
2016,07,14,04,12,11.90
2016,07,14,04,13,11.90
2016,07,14,04,14,11.90
2016,07,14,04,15,11.90
2016,07,14,04,16,11.90
2016,07,14,04,17,11.80
2016,07,14,04,18,11.80
2016,07,14,04,19,11.80
2016,07,14,04,20,11.80
2016,07,14,04,21,11.80
2016,07,14,04,22,11.70
2016,07,14,04,23,11.70
2016,07,14,04,24,11.70
2016,07,14,04,25,11.70
2016,07,14,04,26,11.70
2016,07,14,04,27,11.60
2016,07,14,04,28,11.60
2016,07,14,04,29,11.60
2016,07,14,04,30,11.60
2016,07,14,04,31,11.60
2016,07,14,04,32,11.60
2016,07,14,04,33,11.60
2016,07,14,04,34,11.50
2016,07,14,04,35,11.50
2016,07,14,04,36,11.50
2016,07,14,04,37,11.50
2016,07,14,04,38,11.40
2016,07,14,04,39,11.40
2016,07,14,04,40,11.40
2016,07,14,04,41,11.40
2016,07,14,04,42,11.40
2016,07,14,04,43,11.40
2016,07,14,04,44,11.40
2016,07,14,04,45,11.40
2016,07,14,04,46,11.40
2016,07,14,04,47,11.40
2016,07,14,04,48,11.40
2016,07,14,04,49,11.40
2016,07,14,04,50,11.40
2016,07,14,04,51,11.40
2016,07,14,04,52,11.40
2016,07,14,04,53,11.40
2016,07,14,04,54,11.30
2016,07,14,04,55,11.30
2016,07,14,04,56,11.30
2016,07,14,04,57,11.30
2016,07,14,04,58,11.30
2016,07,14,04,59,11.30
2016,07,14,05,00,11.30
2016,07,14,05,01,11.30
2016,07,14,05,02,11.30
2016,07,14,05,03,11.30
2016,07,14,05,04,11.30
2016,07,14,05,05,11.30
2016,07,14,05,06,11.30
2016,07,14,05,07,11.30
2016,07,14,05,08,11.30
2016,07,14,05,09,11.20
2016,07,14,05,10,11.20
2016,07,14,05,11,11.20
2016,07,14,05,12,11.20
2016,07,14,05,13,11.20
2016,07,14,05,14,11.20
2016,07,14,05,15,11.20
2016,07,14,05,16,11.20
2016,07,14,05,17,11.20
2016,07,14,05,18,11.20
2016,07,14,05,19,11.20
2016,07,14,05,20,11.20
2016,07,14,05,21,11.20
2016,07,14,05,22,11.20
2016,07,14,05,23,11.20
2016,07,14,05,24,11.20
2016,07,14,05,25,11.20
2016,07,14,05,26,11.20
2016,07,14,05,27,11.20
2016,07,14,05,28,11.20
2016,07,14,05,29,11.20
2016,07,14,05,30,11.20
2016,07,14,05,31,11.20
2016,07,14,05,32,11.10
2016,07,14,05,33,11.10
2016,07,14,05,34,11.10
2016,07,14,05,35,11.10
2016,07,14,05,36,11.10
2016,07,14,05,37,11.10
2016,07,14,05,38,11.10
2016,07,14,05,39,11.00
2016,07,14,05,40,11.00
2016,07,14,05,41,11.00
2016,07,14,05,42,11.00
2016,07,14,05,43,11.00
2016,07,14,05,44,11.00
2016,07,14,05,45,11.00
2016,07,14,05,46,11.00
2016,07,14,05,47,11.10
2016,07,14,05,48,11.10
2016,07,14,05,49,11.10
2016,07,14,05,50,11.10
2016,07,14,05,51,11.20
2016,07,14,05,52,11.20
2016,07,14,05,53,11.20
2016,07,14,05,54,11.20
2016,07,14,05,55,11.20
2016,07,14,05,56,11.20
2016,07,14,05,57,11.20
2016,07,14,05,58,11.20
2016,07,14,05,59,11.20
2016,07,14,06,00,11.20
2016,07,14,06,01,11.20
2016,07,14,06,02,11.20
2016,07,14,06,03,11.10
2016,07,14,06,04,11.10
2016,07,14,06,05,11.10
2016,07,14,06,06,11.20
2016,07,14,06,07,11.20
2016,07,14,06,08,11.20
2016,07,14,06,09,11.20
2016,07,14,06,10,11.20
2016,07,14,06,11,11.20
2016,07,14,06,12,11.20
2016,07,14,06,13,11.20
2016,07,14,06,14,11.20
2016,07,14,06,15,11.20
2016,07,14,06,16,11.30
2016,07,14,06,17,11.30
2016,07,14,06,18,11.30
2016,07,14,06,19,11.30
2016,07,14,06,20,11.30
2016,07,14,06,21,11.30
2016,07,14,06,22,11.30
2016,07,14,06,23,11.30
2016,07,14,06,24,11.30
2016,07,14,06,25,11.20
2016,07,14,06,26,11.20
2016,07,14,06,27,11.20
2016,07,14,06,28,11.10
2016,07,14,06,29,11.10
2016,07,14,06,30,11.10
2016,07,14,06,31,11.10
2016,07,14,06,32,11.10
2016,07,14,06,33,11.10
2016,07,14,06,34,11.10
2016,07,14,06,35,11.10
2016,07,14,06,36,11.10
2016,07,14,06,37,11.10
2016,07,14,06,38,11.10
2016,07,14,06,39,11.10
2016,07,14,06,40,11.10
2016,07,14,06,41,11.10
2016,07,14,06,42,11.10
2016,07,14,06,43,11.10
2016,07,14,06,44,11.10
2016,07,14,06,45,11.20
2016,07,14,06,46,11.20
2016,07,14,06,47,11.20
2016,07,14,06,48,11.30
2016,07,14,06,49,11.30
2016,07,14,06,50,11.40
2016,07,14,06,51,11.50
2016,07,14,06,52,11.50
2016,07,14,06,53,11.60
2016,07,14,06,54,11.70
2016,07,14,06,55,11.80
2016,07,14,06,56,11.90
2016,07,14,06,57,11.90
2016,07,14,06,58,12.00
2016,07,14,06,59,12.10
2016,07,14,07,00,12.20
2016,07,14,07,01,12.20
2016,07,14,07,02,12.30
2016,07,14,07,03,12.30
2016,07,14,07,04,12.40
2016,07,14,07,05,12.40
2016,07,14,07,06,12.50
2016,07,14,07,07,12.50
2016,07,14,07,08,12.60
2016,07,14,07,09,12.70
2016,07,14,07,10,12.80
2016,07,14,07,11,12.90
2016,07,14,07,12,13.00
2016,07,14,07,13,13.10
2016,07,14,07,14,13.20
2016,07,14,07,15,13.20
2016,07,14,07,16,13.30
2016,07,14,07,17,13.30
2016,07,14,07,18,13.40
2016,07,14,07,19,13.40
2016,07,14,07,20,13.50
2016,07,14,07,21,13.60
2016,07,14,07,22,13.60
2016,07,14,07,23,13.70
2016,07,14,07,24,13.70
2016,07,14,07,25,13.80
2016,07,14,07,26,13.80
2016,07,14,07,27,13.90
2016,07,14,07,28,13.90
2016,07,14,07,29,13.90
2016,07,14,07,30,14.00
2016,07,14,07,31,14.00
2016,07,14,07,32,14.10
2016,07,14,07,33,14.10
2016,07,14,07,34,14.10
2016,07,14,07,35,14.20
2016,07,14,07,36,14.20
2016,07,14,07,37,14.20
2016,07,14,07,38,14.20
2016,07,14,07,39,14.30
2016,07,14,07,40,14.30
2016,07,14,07,41,14.30
2016,07,14,07,42,14.30
2016,07,14,07,43,14.30
2016,07,14,07,44,14.40
2016,07,14,07,45,14.40
2016,07,14,07,46,14.50
2016,07,14,07,47,14.60
2016,07,14,07,48,14.70
2016,07,14,07,49,14.80
2016,07,14,07,50,14.80
2016,07,14,07,51,14.90
2016,07,14,07,52,15.00
2016,07,14,07,53,15.10
2016,07,14,07,54,15.10
2016,07,14,07,55,15.20
2016,07,14,07,56,15.20
2016,07,14,07,57,15.30
2016,07,14,07,58,15.40
2016,07,14,07,59,15.50
2016,07,14,08,00,15.50
2016,07,14,08,01,15.60
2016,07,14,08,02,15.70
2016,07,14,08,03,15.80
2016,07,14,08,04,15.80
2016,07,14,08,05,15.80
2016,07,14,08,06,15.70
2016,07,14,08,07,15.70
2016,07,14,08,08,15.60
2016,07,14,08,09,15.50
2016,07,14,08,10,15.40
2016,07,14,08,11,15.40
2016,07,14,08,12,15.40
2016,07,14,08,13,15.40
2016,07,14,08,14,15.40
2016,07,14,08,15,15.40
2016,07,14,08,16,15.40
2016,07,14,08,17,15.40
2016,07,14,08,18,15.40
2016,07,14,08,19,15.40
2016,07,14,08,20,15.40
2016,07,14,08,21,15.40
2016,07,14,08,22,15.40
2016,07,14,08,23,15.50
2016,07,14,08,24,15.40
2016,07,14,08,25,15.40
2016,07,14,08,26,15.40
2016,07,14,08,27,15.40
2016,07,14,08,28,15.40
2016,07,14,08,29,15.50
2016,07,14,08,30,15.50
2016,07,14,08,31,15.50
2016,07,14,08,32,15.60
2016,07,14,08,33,15.60
2016,07,14,08,34,15.70
2016,07,14,08,35,15.70
2016,07,14,08,36,15.80
2016,07,14,08,37,15.80
2016,07,14,08,38,15.80
2016,07,14,08,39,15.80
2016,07,14,08,40,15.80
2016,07,14,08,41,15.80
2016,07,14,08,42,15.80
2016,07,14,08,43,15.80
2016,07,14,08,44,15.80
2016,07,14,08,45,15.90
2016,07,14,08,46,15.90
2016,07,14,08,47,15.90
2016,07,14,08,48,15.90
2016,07,14,08,49,16.00
2016,07,14,08,50,16.00
2016,07,14,08,51,16.00
2016,07,14,08,52,16.10
2016,07,14,08,53,16.10
2016,07,14,08,54,16.10
2016,07,14,08,55,16.20
2016,07,14,08,56,16.20
2016,07,14,08,57,16.30
2016,07,14,08,58,16.30
2016,07,14,08,59,16.30
2016,07,14,09,00,16.40
2016,07,14,09,01,16.50
2016,07,14,09,02,16.60
2016,07,14,09,03,16.70
2016,07,14,09,04,16.80
2016,07,14,09,05,16.90
2016,07,14,09,06,17.00
2016,07,14,09,07,17.10
2016,07,14,09,08,17.20
2016,07,14,09,09,17.20
2016,07,14,09,10,17.20
2016,07,14,09,11,17.20
2016,07,14,09,12,17.20
2016,07,14,09,13,17.20
2016,07,14,09,14,17.20
2016,07,14,09,15,17.20
2016,07,14,09,16,17.10
2016,07,14,09,17,17.10
2016,07,14,09,18,17.00
2016,07,14,09,19,17.00
2016,07,14,09,20,17.00
2016,07,14,09,21,16.90
2016,07,14,09,22,16.90
2016,07,14,09,23,16.90
2016,07,14,09,24,16.90
2016,07,14,09,25,16.90
2016,07,14,09,26,16.80
2016,07,14,09,27,16.80
2016,07,14,09,28,16.70
2016,07,14,09,29,16.70
2016,07,14,09,30,16.70
2016,07,14,09,31,16.60
2016,07,14,09,32,16.60
2016,07,14,09,33,16.60
2016,07,14,09,34,16.60
2016,07,14,09,35,16.60
2016,07,14,09,36,16.60
2016,07,14,09,37,16.60
2016,07,14,09,38,16.60
2016,07,14,09,39,16.60
2016,07,14,09,40,16.50
2016,07,14,09,41,16.50
2016,07,14,09,42,16.50
2016,07,14,09,43,16.60
2016,07,14,09,44,16.60
2016,07,14,09,45,16.60
2016,07,14,09,46,16.70
2016,07,14,09,47,16.80
2016,07,14,09,48,16.80
2016,07,14,09,49,16.90
2016,07,14,09,50,16.90
2016,07,14,09,51,16.90
2016,07,14,09,52,16.90
2016,07,14,09,53,16.90
2016,07,14,09,54,16.90
2016,07,14,09,55,16.90
2016,07,14,09,56,16.90
2016,07,14,09,57,16.90
2016,07,14,09,58,16.90
2016,07,14,09,59,16.90
2016,07,14,10,00,17.00
2016,07,14,10,01,17.00
2016,07,14,10,02,17.00
2016,07,14,10,03,17.20
2016,07,14,10,04,17.30
2016,07,14,10,05,17.30
2016,07,14,10,06,17.30
2016,07,14,10,07,17.30
2016,07,14,10,08,17.40
2016,07,14,10,09,17.40
2016,07,14,10,10,17.40
2016,07,14,10,11,17.40
2016,07,14,10,12,17.40
2016,07,14,10,13,17.40
2016,07,14,10,14,17.40
2016,07,14,10,15,17.40
2016,07,14,10,16,17.50
2016,07,14,10,17,17.60
2016,07,14,10,18,17.60
2016,07,14,10,19,17.70
2016,07,14,10,20,17.80
2016,07,14,10,21,17.90
2016,07,14,10,22,17.90
2016,07,14,10,23,18.00
2016,07,14,10,24,18.10
2016,07,14,10,25,18.20
2016,07,14,10,26,18.20
2016,07,14,10,27,18.20
2016,07,14,10,28,18.10
2016,07,14,10,29,18.10
2016,07,14,10,30,18.10
2016,07,14,10,31,18.10
2016,07,14,10,32,18.10
2016,07,14,10,33,18.10
2016,07,14,10,34,18.10
2016,07,14,10,35,18.10
2016,07,14,10,36,18.10
2016,07,14,10,37,18.00
2016,07,14,10,38,18.00
2016,07,14,10,39,18.00
2016,07,14,10,40,18.00
2016,07,14,10,41,18.00
2016,07,14,10,42,18.10
2016,07,14,10,43,18.10
2016,07,14,10,44,18.10
2016,07,14,10,45,18.20
2016,07,14,10,46,18.20
2016,07,14,10,47,18.30
2016,07,14,10,48,18.40
2016,07,14,10,49,18.50
2016,07,14,10,50,18.60
2016,07,14,10,51,18.60
2016,07,14,10,52,18.70
2016,07,14,10,53,18.70
2016,07,14,10,54,18.70
2016,07,14,10,55,18.60
2016,07,14,10,56,18.60
2016,07,14,10,57,18.60
2016,07,14,10,58,18.60
2016,07,14,10,59,18.60
2016,07,14,11,00,18.60
2016,07,14,11,01,18.50
2016,07,14,11,02,18.50
2016,07,14,11,03,18.50
2016,07,14,11,04,18.60
2016,07,14,11,05,18.60
2016,07,14,11,06,18.70
2016,07,14,11,07,18.80
2016,07,14,11,08,19.00
2016,07,14,11,09,19.10
2016,07,14,11,10,19.30
2016,07,14,11,11,19.30
2016,07,14,11,12,19.30
2016,07,14,11,13,19.20
2016,07,14,11,14,19.20
2016,07,14,11,15,19.20
2016,07,14,11,16,19.20
2016,07,14,11,17,19.30
2016,07,14,11,18,19.30
2016,07,14,11,19,19.30
2016,07,14,11,20,19.30
2016,07,14,11,21,19.30
2016,07,14,11,22,19.30
2016,07,14,11,23,19.40
2016,07,14,11,24,19.40
2016,07,14,11,25,19.50
2016,07,14,11,26,19.40
2016,07,14,11,27,19.30
2016,07,14,11,28,19.20
2016,07,14,11,29,19.10
2016,07,14,11,30,19.10
2016,07,14,11,31,19.10
2016,07,14,11,32,19.10
2016,07,14,11,33,19.10
2016,07,14,11,34,19.10
2016,07,14,11,35,19.20
2016,07,14,11,36,19.20
2016,07,14,11,37,19.30
2016,07,14,11,38,19.40
2016,07,14,11,39,19.50
2016,07,14,11,40,19.50
2016,07,14,11,41,19.50
2016,07,14,11,42,19.50
2016,07,14,11,43,19.50
2016,07,14,11,44,19.50
2016,07,14,11,45,19.50
2016,07,14,11,46,19.60
2016,07,14,11,47,19.50
2016,07,14,11,48,19.50
2016,07,14,11,49,19.50
2016,07,14,11,50,19.50
2016,07,14,11,51,19.60
2016,07,14,11,52,19.50
2016,07,14,11,53,19.50
2016,07,14,11,54,19.40
2016,07,14,11,55,19.30
2016,07,14,11,56,19.20
2016,07,14,11,57,19.20
2016,07,14,11,58,19.10
2016,07,14,11,59,19.10
2016,07,14,12,00,19.10
2016,07,14,12,01,19.00
2016,07,14,12,02,19.00
2016,07,14,12,03,18.90
2016,07,14,12,04,18.90
2016,07,14,12,05,18.80
2016,07,14,12,06,18.70
2016,07,14,12,07,18.70
2016,07,14,12,08,18.70
2016,07,14,12,09,18.70
2016,07,14,12,10,18.70
2016,07,14,12,11,18.60
2016,07,14,12,12,18.60
2016,07,14,12,13,18.50
2016,07,14,12,14,18.40
2016,07,14,12,15,18.40
2016,07,14,12,16,18.30
2016,07,14,12,17,18.30
2016,07,14,12,18,18.30
2016,07,14,12,19,18.30
2016,07,14,12,20,18.30
2016,07,14,12,21,18.30
2016,07,14,12,22,18.30
2016,07,14,12,23,18.30
2016,07,14,12,24,18.40
2016,07,14,12,25,18.50
2016,07,14,12,26,18.50
2016,07,14,12,27,18.70
2016,07,14,12,28,18.70
2016,07,14,12,29,18.80
2016,07,14,12,30,18.80
2016,07,14,12,31,18.80
2016,07,14,12,32,18.80
2016,07,14,12,33,18.90
2016,07,14,12,34,18.80
2016,07,14,12,35,18.80
2016,07,14,12,36,18.80
2016,07,14,12,37,18.80
2016,07,14,12,38,18.80
2016,07,14,12,39,18.80
2016,07,14,12,40,18.80
2016,07,14,12,41,18.80
2016,07,14,12,42,18.70
2016,07,14,12,43,18.70
2016,07,14,12,44,18.60
2016,07,14,12,45,18.60
2016,07,14,12,46,18.50
2016,07,14,12,47,18.50
2016,07,14,12,48,18.50
2016,07,14,12,49,18.40
2016,07,14,12,50,18.50
2016,07,14,12,51,18.50
2016,07,14,12,52,18.50
2016,07,14,12,53,18.50
2016,07,14,12,54,18.40
2016,07,14,12,55,18.40
2016,07,14,12,56,18.40
2016,07,14,12,57,18.40
2016,07,14,12,58,18.50
2016,07,14,12,59,18.40
2016,07,14,13,00,18.40
2016,07,14,13,01,18.40
2016,07,14,13,02,18.40
2016,07,14,13,03,18.50
2016,07,14,13,04,18.50
2016,07,14,13,05,18.50
2016,07,14,13,06,18.50
2016,07,14,13,07,18.50
2016,07,14,13,08,18.50
2016,07,14,13,09,18.50
2016,07,14,13,10,18.50
2016,07,14,13,11,18.50
2016,07,14,13,12,18.60
2016,07,14,13,13,18.60
2016,07,14,13,14,18.60
2016,07,14,13,15,18.60
2016,07,14,13,16,18.50
2016,07,14,13,17,18.40
2016,07,14,13,18,18.30
2016,07,14,13,19,18.30
2016,07,14,13,20,18.30
2016,07,14,13,21,18.30
2016,07,14,13,22,18.30
2016,07,14,13,23,18.40
2016,07,14,13,24,18.40
2016,07,14,13,25,18.40
2016,07,14,13,26,18.30
2016,07,14,13,27,18.30
2016,07,14,13,28,18.30
2016,07,14,13,29,18.20
2016,07,14,13,30,18.10
2016,07,14,13,31,18.10
2016,07,14,13,32,18.00
2016,07,14,13,33,18.00
2016,07,14,13,34,17.90
2016,07,14,13,35,17.90
2016,07,14,13,36,17.80
2016,07,14,13,37,17.80
2016,07,14,13,38,17.80
2016,07,14,13,39,17.70
2016,07,14,13,40,17.70
2016,07,14,13,41,17.60
2016,07,14,13,42,17.50
2016,07,14,13,43,17.50
2016,07,14,13,44,17.40
2016,07,14,13,45,17.40
2016,07,14,13,46,17.40
2016,07,14,13,47,17.40
2016,07,14,13,48,17.40
2016,07,14,13,49,17.40
2016,07,14,13,50,17.40
2016,07,14,13,51,17.40
2016,07,14,13,52,17.40
2016,07,14,13,53,17.40
2016,07,14,13,54,17.50
2016,07,14,13,55,17.50
2016,07,14,13,56,17.50
2016,07,14,13,57,17.50
2016,07,14,13,58,17.50
2016,07,14,13,59,17.40
2016,07,14,14,00,17.40
2016,07,14,14,01,17.30
2016,07,14,14,02,17.30
2016,07,14,14,03,17.20
2016,07,14,14,04,17.20
2016,07,14,14,05,17.10
2016,07,14,14,06,17.10
2016,07,14,14,07,17.00
2016,07,14,14,08,17.00
2016,07,14,14,09,17.00
2016,07,14,14,10,17.00
2016,07,14,14,11,17.00
2016,07,14,14,12,16.90
2016,07,14,14,13,16.90
2016,07,14,14,14,16.90
2016,07,14,14,15,16.90
2016,07,14,14,16,16.90
2016,07,14,14,17,16.90
2016,07,14,14,18,16.90
2016,07,14,14,19,16.90
2016,07,14,14,20,16.90
2016,07,14,14,21,16.80
2016,07,14,14,22,16.80
2016,07,14,14,23,16.80
2016,07,14,14,24,16.80
2016,07,14,14,25,16.80
2016,07,14,14,26,16.80
2016,07,14,14,27,16.80
2016,07,14,14,28,16.80
2016,07,14,14,29,16.80
2016,07,14,14,30,16.80
2016,07,14,14,31,16.80
2016,07,14,14,32,16.80
2016,07,14,14,33,16.80
2016,07,14,14,34,16.80
2016,07,14,14,35,16.70
2016,07,14,14,36,16.70
2016,07,14,14,37,16.70
2016,07,14,14,38,16.70
2016,07,14,14,39,16.70
2016,07,14,14,40,16.70
2016,07,14,14,41,16.70
2016,07,14,14,42,16.70
2016,07,14,14,43,16.70
2016,07,14,14,44,16.80
2016,07,14,14,45,16.80
2016,07,14,14,46,16.90
2016,07,14,14,47,17.00
2016,07,14,14,48,17.20
2016,07,14,14,49,17.30
2016,07,14,14,50,17.40
2016,07,14,14,51,17.60
2016,07,14,14,52,17.70
2016,07,14,14,53,17.70
2016,07,14,14,54,17.80
2016,07,14,14,55,17.90
2016,07,14,14,56,17.80
2016,07,14,14,57,17.80
2016,07,14,14,58,17.80
2016,07,14,14,59,17.80
2016,07,14,15,00,17.80
2016,07,14,15,01,17.90
2016,07,14,15,02,18.10
2016,07,14,15,03,18.20
2016,07,14,15,04,18.30
2016,07,14,15,05,18.30
2016,07,14,15,06,18.40
2016,07,14,15,07,18.40
2016,07,14,15,08,18.40
2016,07,14,15,09,18.40
2016,07,14,15,10,18.40
2016,07,14,15,11,18.40
2016,07,14,15,12,18.40
2016,07,14,15,13,18.30
2016,07,14,15,14,18.30
2016,07,14,15,15,18.20
2016,07,14,15,16,18.20
2016,07,14,15,17,18.30
2016,07,14,15,18,18.30
2016,07,14,15,19,18.40
2016,07,14,15,20,18.50
2016,07,14,15,21,18.70
2016,07,14,15,22,18.80
2016,07,14,15,23,19.00
2016,07,14,15,24,19.20
2016,07,14,15,25,19.30
2016,07,14,15,26,19.40
2016,07,14,15,27,19.40
2016,07,14,15,28,19.40
2016,07,14,15,29,19.30
2016,07,14,15,30,19.20
2016,07,14,15,31,19.10
2016,07,14,15,32,19.00
2016,07,14,15,33,19.00
2016,07,14,15,34,19.00
2016,07,14,15,35,19.00
2016,07,14,15,36,19.10
2016,07,14,15,37,19.10
2016,07,14,15,38,19.20
2016,07,14,15,39,19.30
2016,07,14,15,40,19.30
2016,07,14,15,41,19.20
2016,07,14,15,42,19.20
2016,07,14,15,43,19.10
2016,07,14,15,44,19.10
2016,07,14,15,45,19.00
2016,07,14,15,46,19.00
2016,07,14,15,47,18.90
2016,07,14,15,48,18.80
2016,07,14,15,49,18.80
2016,07,14,15,50,18.80
2016,07,14,15,51,18.80
2016,07,14,15,52,18.80
2016,07,14,15,53,18.80
2016,07,14,15,54,18.80
2016,07,14,15,55,18.80
2016,07,14,15,56,18.80
2016,07,14,15,57,18.90
2016,07,14,15,58,18.90
2016,07,14,15,59,18.90
2016,07,14,16,00,18.90
2016,07,14,16,01,18.90
2016,07,14,16,02,18.90
2016,07,14,16,03,19.00
2016,07,14,16,04,19.00
2016,07,14,16,05,19.00
2016,07,14,16,06,19.00
2016,07,14,16,07,19.00
2016,07,14,16,08,19.00
2016,07,14,16,09,19.00
2016,07,14,16,10,19.00
2016,07,14,16,11,19.00
2016,07,14,16,12,19.10
2016,07,14,16,13,19.10
2016,07,14,16,14,19.10
2016,07,14,16,15,19.10
2016,07,14,16,16,19.10
2016,07,14,16,17,19.10
2016,07,14,16,18,19.10
2016,07,14,16,19,19.10
2016,07,14,16,20,19.20
2016,07,14,16,21,19.20
2016,07,14,16,22,19.20
2016,07,14,16,23,19.20
2016,07,14,16,24,19.20
2016,07,14,16,25,19.20
2016,07,14,16,26,19.20
2016,07,14,16,27,19.20
2016,07,14,16,28,19.20
2016,07,14,16,29,19.20
2016,07,14,16,30,19.30
2016,07,14,16,31,19.40
2016,07,14,16,32,19.40
2016,07,14,16,33,19.50
2016,07,14,16,34,19.60
2016,07,14,16,35,19.70
2016,07,14,16,36,19.80
2016,07,14,16,37,19.90
2016,07,14,16,38,20.00
2016,07,14,16,39,20.10
2016,07,14,16,40,20.10
2016,07,14,16,41,20.10
2016,07,14,16,42,20.20
2016,07,14,16,43,20.20
2016,07,14,16,44,20.20
2016,07,14,16,45,20.30
2016,07,14,16,46,20.30
2016,07,14,16,47,20.40
2016,07,14,16,48,20.40
2016,07,14,16,49,20.40
2016,07,14,16,50,20.40
2016,07,14,16,51,20.40
2016,07,14,16,52,20.40
2016,07,14,16,53,20.30
2016,07,14,16,54,20.30
2016,07,14,16,55,20.20
2016,07,14,16,56,20.20
2016,07,14,16,57,20.20
2016,07,14,16,58,20.20
2016,07,14,16,59,20.20
2016,07,14,17,00,20.20
2016,07,14,17,01,20.20
2016,07,14,17,02,20.20
2016,07,14,17,03,20.20
2016,07,14,17,04,20.10
2016,07,14,17,05,20.20
2016,07,14,17,06,20.20
2016,07,14,17,07,20.20
2016,07,14,17,08,20.10
2016,07,14,17,09,20.10
2016,07,14,17,10,20.10
2016,07,14,17,11,20.10
2016,07,14,17,12,20.20
2016,07,14,17,13,20.30
2016,07,14,17,14,20.30
2016,07,14,17,15,20.30
2016,07,14,17,16,20.30
2016,07,14,17,17,20.30
2016,07,14,17,18,20.30
2016,07,14,17,19,20.30